{"data":{"norad_id":58549,"epoch":"2026-05-25T02:33:50.798880Z","epoch_age_seconds":72603,"freshness":"FRESH","line1":"1 58549U 23192U   26145.10683795  .00006359  00000+0  19925-3 0  9996","line2":"2 58549  53.1599  67.1935 0001061  68.8975 291.2140 15.34385468137699","mean_motion":15.34385468,"eccentricity":0.0001061,"inclination_deg":53.1599,"raan_deg":67.1935,"arg_perigee_deg":68.8975,"mean_anomaly_deg":291.214,"bstar":0.00019925,"rev_number":13769,"period_min":93.848646903374,"perigee_km":462.02061498226,"apogee_km":463.47225044669,"semimajor_km":6840.8834327145,"source":"CELESTRAK","updated_at":"2026-05-25T13:38:18.664141Z"}}